Flag for U.S.A. Weather past 2 weeks in Stillwater, Minnesota, U.S.A.

Now
64 °F

Clear.


Feels Like: 64 °F
Forecast: 57 / 77 °F
Wind: 6 mph from Northwest

Location: St. Paul Downtown Holman Field

Current Time: Jul 29, 2014 at 1:48:17 AM

Latest Report: Jul 29, 2014 at 12:53 AM


Visibility: 10 mi

Pressure: 30.12 "Hg

Humidity: 73%

Dew point: 55 °F

Location of StillwaterLocation

Historic Weather in Stillwater — Graph

°F

Stillwater temperature yesterday

Maximum temperature yesterday: 76 °F (at 2:53 PM)
Minimum temperature yesterday: 63 °F (at 3:53 AM)
Average temperature yesterday: 68 °F

Past Weeks' High & Low Weather Summary

 TemperatureHumidityPressure
High89 °F (Jul 21, 3:53 PM)97% (Jul 26, 5:53 AM)30.24 "Hg (Jul 26, 5:53 AM)
Low53 °F (Jul 16, 5:53 AM)37% (Jul 16, 2:53 PM)29.74 "Hg (Jul 26, 5:53 PM)
Average71 °F67%29.96 "Hg
* Reported Jul 14 12:53 AM — Jul 29 12:53 AM, Stillwater, Weather by CustomWeather, © 2014

Note: Actual official high and low records may vary slightly from our data, if they occured in-between our weather recording intervals... More about our weather records

Advertising

Stillwater weather history for previous 24 hours

 ConditionsComfort  
Time TempWeatherWind HumidityBarometerVisibility
12:53 AM
Jul 29
64 °FClear.6 mph73%30.12 "Hg10 mi
11:53 PM
Jul 28
64 °FClear.7 mph73%30.12 "Hg10 mi
10:53 PM64 °FClear.No wind73%30.12 "Hg10 mi
9:53 PM68 °FClear.6 mph59%30.12 "Hg10 mi
8:53 PM70 °FSunny.6 mph53%30.11 "Hg10 mi
7:53 PM72 °FSunny.5 mph49%30.11 "Hg10 mi
6:53 PM74 °FSunny.6 mph45%30.11 "Hg10 mi
5:53 PM75 °FPartly sunny.10 mph45%30.13 "Hg10 mi
4:53 PM76 °FPassing clouds.8 mph43%30.13 "Hg10 mi
3:53 PM75 °FBroken clouds.8 mph42%30.14 "Hg10 mi
2:53 PM76 °FSunny.10 mph40%30.15 "Hg10 mi
1:53 PM75 °FPassing clouds.12 mph42%30.16 "Hg10 mi
12:53 PM73 °FPartly sunny.16 mph41%30.18 "Hg10 mi
11:53 AM72 °FMore clouds than sun.12 mph52%30.19 "Hg10 mi
10:53 AM70 °FOvercast.7 mph59%30.19 "Hg10 mi
9:53 AM66 °FOvercast.6 mph70%30.19 "Hg10 mi
8:53 AM65 °FOvercast.5 mph76%30.19 "Hg10 mi
7:53 AM63 °FOvercast.6 mph78%30.18 "Hg10 mi
6:53 AM63 °FOvercast.6 mph78%30.17 "Hg10 mi
5:53 AM63 °FOvercast.7 mph78%30.16 "Hg10 mi
4:53 AM63 °FPassing clouds.7 mph81%30.15 "Hg10 mi
3:53 AM63 °FOvercast.8 mph81%30.14 "Hg10 mi
2:53 AM64 °FOvercast.10 mph75%30.13 "Hg10 mi
1:53 AM64 °FOvercast.7 mph75%30.12 "Hg10 mi
Weather by CustomWeather, © 2014

See weather overviewHow to use our weather pages